Location: Luz Observatory
(34.5000°N, 117.2833°W)
Time: 21:24:02
(UTC-07:00)

Okean 3 Rocket - Visible Passes

Search period start: 01 September 2015 00:00
Search period end: 11 September 2015 00:00
Orbit: 615 x 646 km, 82.5° (Epoch: 31 August)

Date Brightness Start Highest point End Pass type
(mag) Time Alt. Az. Time Alt. Az. Time Alt. Az.
01 Sep 5.5 20:06:43 10° NE 20:08:07 12° ENE 20:08:30 12° ENE visible
01 Sep 4.6 21:42:24 10° NNW 21:45:55 43° WNW 21:45:55 43° WNW visible
02 Sep 4.7 20:25:56 10° NNE 20:29:29 24° ENE 20:29:46 24° E visible
02 Sep 5.8 22:04:07 10° NW 22:07:11 21° W 22:07:11 21° W visible
03 Sep 3.6 20:46:23 10° N 20:50:40 53° E 20:51:05 51° ESE visible
04 Sep 3.8 21:07:20 10° NNW 21:11:42 67° W 21:12:28 54° SSW visible
05 Sep 5.1 19:51:28 10° NNE 19:54:25 18° ENE 19:56:29 14° ESE visible
05 Sep 5.3 21:28:47 10° NNW 21:32:38 29° W 21:33:55 25° WSW visible
06 Sep 4.1 20:11:36 10° N 20:15:40 38° E 20:18:01 21° SE visible
06 Sep 6.4 21:51:09 10° NW 21:53:30 14° W 21:55:28 10° WSW visible
07 Sep 3.4 20:32:21 10° N 20:36:46 86° E 20:39:39 21° S visible
08 Sep 4.8 20:53:35 10° NNW 20:57:43 41° W 21:01:26 12° SSW visible
09 Sep 4.5 19:36:55 10° NNE 19:40:39 27° ENE 19:44:25 10° SE visible
09 Sep 6.1 21:15:26 10° NW 21:18:37 19° W 21:21:39 10° SW visible
10 Sep 3.5 19:57:27 10° N 20:01:48 61° E 20:06:08 10° SSE visible
